Showing default

COSMOS 2540, 44517

Orbit data source: Space-Track

COSMOS 2540, 44517 is a payload satellite owned by TS VS RF (CIS) in SSO that was launched on Fri, 30 Aug 2019 UTC via an ROKOT launch vehicle from the Plesetsk Missile And Space Complex (PKMTR). Payload-class satellites include a variety of spacecraft equipped with specific instruments for various scientific and technological missions. These include communications satellites like Starlink; space stations such as the ISS; scientific satellites like the Hubble; Earth observation satellites from companies like Planet Labs, Umbra, and HawkEye 360; GPS; miniature CubeSats for education and research; and military/defense satellites.

Loading next visibility...
Identifier
44517, 2019-057A
Orbit
SSO
Country
Flag of CISCIS
Related business
Manufacturer
Resehetnev ISS
Mission
Operational Defense Geodetic
Bus & Motor
GEO-IK-2 14F31, Unknown motor
Mass
~900 kg wet, ~900 kg dry
Launch date (UTC)
2019-08-30 (6 years ago)
Launch vehicle
ROKOT
Launch site
Plesetsk Missile And Space Complex (PKMTR)
Object type
Payload
Rocket body
Debris
Shape & HBR
Cyl + 2 Pan, 1.5 m
Radar Cross Section
3.727 m², Large (>1 m²)

Expand to show TLE details & history
Last TLE update: 7 hours ago

TLE from 7 hours ago
0 COSMOS 2540
1 44517U 19057A   25261.96139728  .00000040  00000-0  72898-4 0  9996
2 44517  99.2163 273.0616 0015750 174.7092 185.4233 13.85883165306302
Epoch: 2025-09-18T23:04Z
TLE epoch observation values (Epoch: 2025-09-18T23:04:24.724Z)
Latitude
-0.00006°
Longitude
-71.15689°
Altitude
957.427 km
Speed
7.367 km/s
True Right ascension
18h 12m 14s
True Declination
0° 00' 00"
Sunlit
Object was in daylight at epoch
Visualization orbit readout
Latitude
Unknown
Longitude
Unknown
Altitude
Unknown
Speed
Unknown
Apparent Right ascension
Unknown
Apparent Declination
Unknown
Sunlit
N/A
Visualization observer readout
Local Sidereal Time
22:49:13
Azimuth
Unknown
Elevation
Unknown
Doppler factor
Unknown
Orbital elements
Apogee altitude
951.849 km
Perigee altitude
928.796 km
Semi-major axis
7,318.46 km
Eccentricity
0.00158
Inclination
99.2163°
RAAN
273.0616°
Arg. of periapsis
174.7092°
True anomaly
185.40628°
Mean anomaly
185.4233°
Eccentric anomaly
185.41478°
Mean motion
3.46668 °/min
Orbital period
103.85 mins
BSTAR
0.000072898
Loading maneuver chart data...
Computing Atmospheric mass density...
Loading historical data...
Loading historical data...
Loading historical data...
Loading historical data...
Loading historical data...
Loading historical data...
Loading historical data...
Other satellites on launch #57 in the year 2019 (2019-08-30 UTC)

Documentation

Showing up to 5 results
|